Olive Branch, MS

5:29 AM CDT on May 23, 2017 (GMT -0500)
Olive Branch

Weather History for KOLV - April, 2014

Change the Weather History Date:

Friday, April 25, 2014

  Actual Average (KMEM) Record (KMEM)
Temperature  
Mean Temperature 64 °F -  
Max Temperature 73 °F 73 °F 87 °F (1915)
Min Temperature 55 °F 53 °F 32 °F (1910)
Degree Days  
Heating Degree Days 1    
Growing Degree Days 14 (Base 50)    
Moisture  
Dew Point 52 °F    
Average Humidity 74    
Maximum Humidity 100    
Minimum Humidity 31    
Precipitation  
Precipitation 0.00 in - - ()
Sea Level Pressure  
Sea Level Pressure 29.91 in    
Wind  
Wind Speed 9 mph (NW)    
Max Wind Speed 18 mph    
Max Gust Speed 24 mph    
Visibility 10 miles    
Events      
Averages and records for this station are not official NWS values.
T = Trace of Precipitation, MM = Missing Value Source: NWS Daily Summary

Daily Weather History Graph

Daily Weather History Graph

Search for Another Location

Airport or City:

Trip Planner

Search our weather history database for the weather conditions in past years. The results will help you decide how hot, cold, wet, or windy it might be!

Date:

Astronomy

Apr. 25, 2014 Rise Set
Actual Time 6:14 AM CDT 7:39 PM CDT
Civil Twilight 5:48 AM CDT 8:06 PM CDT
Nautical Twilight 5:16 AM CDT 8:38 PM CDT
Astronomical Twilight 4:43 AM CDT 9:11 PM CDT
Moon 3:53 AM CDT (4/25) 4:10 PM CDT (4/25)
Length of Visible Light 14h 18m
Length of Day
13h 24m
Waning Crescent, 15% of the Moon is Illuminated
Apr 25
Waning Crescent
Apr 29
New
May 6
First Quarter
May 14
Full
May 21
Last Quarter

Hourly Weather History & Observations

Time (CDT) Temp. Dew Point Humidity Pressure Visibility Wind Dir Wind Speed Gust Speed Precip Events Conditions
12:15 AM 62.6 °F - N/A% 29.76 in 8.0 mi SW 11.5 mph - 0.00 in   Mostly Cloudy
12:35 AM 62.6 °F 62.6 °F 100% 29.77 in 6.0 mi WSW 17.3 mph 24.2 mph 0.00 in   Overcast
12:55 AM 62.6 °F 62.6 °F 100% 29.78 in 10.0 mi West 10.4 mph 20.7 mph 0.00 in   Mostly Cloudy
1:15 AM 60.8 °F 60.8 °F 100% 29.78 in 10.0 mi West 10.4 mph 16.1 mph 0.00 in   Mostly Cloudy
1:35 AM 60.8 °F 60.8 °F 100% 29.78 in 10.0 mi West 8.1 mph 16.1 mph 0.00 in   Scattered Clouds
1:55 AM 59.0 °F 59.0 °F 100% 29.78 in 5.0 mi West 9.2 mph - 0.00 in   Partly Cloudy
2:15 AM 60.8 °F 60.8 °F 100% 29.79 in 10.0 mi West 6.9 mph 16.1 mph 0.00 in   Mostly Cloudy
2:35 AM 59.0 °F 59.0 °F 100% 29.79 in 8.0 mi West 8.1 mph - 0.00 in   Overcast
2:55 AM 60.8 °F 60.8 °F 100% 29.80 in 10.0 mi West 10.4 mph 17.3 mph 0.00 in   Overcast
3:15 AM 60.8 °F 60.8 °F 100% 29.81 in 10.0 mi West 12.7 mph 16.1 mph 0.00 in   Overcast
3:35 AM 59.0 °F 59.0 °F 100% 29.82 in 10.0 mi West 10.4 mph - 0.00 in   Overcast
3:55 AM 59.0 °F 59.0 °F 100% 29.83 in 10.0 mi WNW 18.4 mph 24.2 mph 0.00 in   Overcast
4:15 AM 59.0 °F 57.2 °F 94% 29.84 in 10.0 mi WNW 11.5 mph 24.2 mph 0.00 in   Mostly Cloudy
4:35 AM 59.0 °F 57.2 °F 94% 29.85 in 10.0 mi West 11.5 mph - 0.00 in   Mostly Cloudy
4:55 AM 59.0 °F 57.2 °F 94% 29.86 in 8.0 mi WNW 8.1 mph 18.4 mph 0.00 in   Overcast
5:15 AM 57.2 °F 55.4 °F 94% 29.86 in 9.0 mi WNW 10.4 mph - 0.00 in   Overcast
5:35 AM 57.2 °F 55.4 °F 94% 29.87 in 10.0 mi WNW 11.5 mph 17.3 mph 0.00 in   Overcast
5:55 AM 57.2 °F 55.4 °F 94% 29.88 in 8.0 mi NW 10.4 mph 18.4 mph 0.00 in   Overcast
6:15 AM 57.2 °F 53.6 °F 88% 29.89 in 10.0 mi WNW 12.7 mph - 0.00 in   Overcast
6:35 AM 57.2 °F 53.6 °F 88% 29.91 in 10.0 mi WNW 8.1 mph 19.6 mph 0.00 in   Overcast
6:50 AM 57.2 °F 55.4 °F 94% 29.93 in 9.0 mi WNW 11.5 mph 17.3 mph N/A   Overcast
7:50 AM 59.0 °F 55.4 °F 88% 29.95 in 10.0 mi NW 12.7 mph - N/A   Partly Cloudy
8:50 AM 60.8 °F 55.4 °F 82% 29.98 in 10.0 mi NW 10.4 mph - N/A   Partly Cloudy
9:50 AM 62.6 °F 50.0 °F 63% 29.99 in 10.0 mi NNW 12.7 mph - N/A   Clear
10:50 AM 64.4 °F 46.4 °F 52% 30.00 in 10.0 mi North 11.5 mph - N/A   Clear
11:50 AM 68.0 °F 46.4 °F 46% 30.01 in 10.0 mi North 11.5 mph - N/A   Clear
12:50 PM 69.8 °F 42.8 °F 38% 30.00 in 10.0 mi NNE 9.2 mph - N/A   Clear
1:50 PM 71.6 °F 42.8 °F 35% 30.00 in 10.0 mi NE 8.1 mph - N/A   Clear
2:50 PM 73.4 °F 42.8 °F 33% 29.99 in 10.0 mi NNE 5.8 mph - N/A   Clear
3:50 PM 73.4 °F 42.8 °F 33% 29.98 in 10.0 mi NNE 5.8 mph - N/A   Clear
4:50 PM 73.4 °F 41.0 °F 31% 29.97 in 10.0 mi NE 8.1 mph - N/A   Clear
5:50 PM 73.4 °F 42.8 °F 33% 29.96 in 10.0 mi NNE 5.8 mph - N/A   Clear
6:50 PM 71.6 °F 41.0 °F 33% 29.97 in 10.0 mi NNE 5.8 mph - N/A   Clear
7:50 PM 66.2 °F 42.8 °F 43% 29.97 in 10.0 mi Calm Calm - N/A   Clear
8:55 PM 62.6 °F 44.6 °F 52% 29.98 in 10.0 mi Calm Calm - 0.00 in   Clear
9:15 PM 60.8 °F 46.4 °F 59% 29.98 in 10.0 mi Calm Calm - 0.00 in   Clear
9:35 PM 60.8 °F 46.4 °F 59% 29.98 in 10.0 mi Calm Calm - 0.00 in   Clear
9:55 PM 60.8 °F 44.6 °F 55% 29.98 in 10.0 mi Calm Calm - 0.00 in   Clear
10:15 PM 57.2 °F 46.4 °F 67% 29.99 in 10.0 mi Calm Calm - 0.00 in   Clear
10:35 PM 57.2 °F 48.2 °F 72% 29.99 in 8.0 mi Calm Calm - 0.00 in   Clear
10:55 PM 59.0 °F 46.4 °F 63% 29.99 in 10.0 mi Calm Calm - 0.00 in   Clear
11:15 PM 57.2 °F 48.2 °F 72% 29.99 in 10.0 mi Calm Calm - 0.00 in   Clear
11:35 PM 55.4 °F 48.2 °F 77% 29.98 in 10.0 mi Calm Calm - 0.00 in   Clear
11:55 PM 55.4 °F 48.2 °F 77% 29.98 in 10.0 mi Calm Calm - 0.00 in   Clear